Wind_Speed
4 5 3 2 4 4 1 2 4 3 4 5 1 2 2 2 4 4 2 3 3 6 2 6 9 8 8 4 5 10 13 14 14 13 11 11 10 9 9 8 8 7 8 14 19 18 16 15 14 13 12 12 11 10 10 11 12 12 13 13 13 13 14 15 16 16 16 17 18 18 19 19 17 15 15 13 13 17 17 14 12 9 8 8 8 9
5 5 3 6 6 3 3 6 6 3 3 5 4 2 2 1 4 4 2 3 2 5 1 6 9 8 8 5 5 11 13 13 15 15 13 13 11 9 9 10 9 8 8 13 16 18 18 16 16 16 13 12 12 11 11 10 10 11 12 12 12 12 15 16 16 16 15 15 15 17 17 17 16 15 16 14 12 17 18 15 14 12 9 9 9 8
5 1 5 5 4 5 6 7 7 7 6 6 4 4 2 3 1 4 3 1 3 3 3 4 8 5 4 6 5 9 11 10 11 14 14 14 13 10 11 11 10 10 9 10 12 16 19 18 18 18 14 13 12 12 12 10 9 11 12 11 11 13 15 16 17 16 15 13 12 14 15 15 15 15 16 15 13 16 19 17 16 15 13 11 10 9
3 3 6 3 6 7 6 7 7 7 6 5 5 5 2 4 2 2 5 5 2 1 2 4 7 4 4 6 4 4 6 7 6 9 10 12 14 13 12 11 11 12 11 10 9 13 17 17 19 19 15 12 11 12 13 12 10 11 12 11 12 14 16 16 17 17 14 12 11 12 13 13 14 14 17 17 16 19 20 18 17 17 16 13 11 10
2 5 4 5 8 7 6 6 6 6 5 5 5 6 2 3 2 2 3 5 5 3 2 7 7 2 2 6 4 4 5 7 5 7 8 7 9 10 9 9 10 11 11 11 9 10 14 16 19 20 16 12 11 11 12 12 11 11 11 11 13 14 15 16 16 16 14 14 14 14 15 14 14 15 19 20 19 20 21 20 18 17 18 16 14 13
2 3 4 7 8 7 6 6 5 5 4 4 3 3 3 2 3 3 4 5 5 5 2 5 5 2 2 3 4 3 4 6 3 5 7 6 6 7 8 8 7 8 8 8 9 11 13 16 19 19 16 13 11 11 11 12 11 10 10 11 13 14 15 15 16 15 14 14 16 16 17 17 17 18 19 20 19 18 19 20 19 19 20 20 17 14
3 5 7 8 7 8 6 5 4 4 6 3 3 1 3 5 4 4 4 5 2 2 4 2 5 2 2 3 2 2 4 5 3 4 6 6 6 6 7 6 5 6 6 6 8 11 13 17 18 16 15 13 11 11 11 11 10 10 10 11 12 13 14 15 15 15 13 13 15 16 16 16 16 17 18 18 17 17 17 18 19 21 22 23 21 13
2 6 8 8 8 7 6 4 4 2 6 0 6 2 3 3 3 4 3 3 2 3 4 3 4 4 1 2 1 3 5 4 3 5 5 5 5 5 5 5 5 6 6 6 7 8 12 16 17 16 14 12 12 12 10 10 10 9 9 10 11 12 13 14 15 14 13 12 14 15 15 15 15 15 16 17 17 17 17 17 19 22 23 25 23 14
1 4 4 6 7 4 2 2 4 2 4 4 6 3 2 1 3 3 3 1 0 2 4 6 3 5 1 3 2 3 4 4 6 6 6 6 6 5 5 5 5 5 5 6 6 8 12 17 18 17 14 12 12 10 9 9 9 9 9 10 10 11 11 13 14 13 12 12 12 14 14 14 15 14 15 16 17 17 18 18 19 22 23 24 25 18
1 1 4 6 5 1 2 4 2 6 2 5 2 2 3 2 1 1 0 1 2 3 3 7 1 5 2 3 3 2 2 5 6 5 6 6 6 6 6 6 5 5 4 5 7 11 14 18 19 16 14 13 11 9 9 9 8 8 8 9 10 9 8 11 12 11 12 12 11 12 13 14 14 14 15 16 17 18 19 19 20 22 22 22 24 21
2 2 1 3 2 2 1 3 5 7 4 2 5 5 5 5 4 2 1 2 4 2 5 6 1 4 1 3 4 4 4 6 6 4 4 5 5 6 6 6 6 5 4 4 7 11 15 18 18 16 14 12 10 9 9 8 7 7 7 8 9 7 6 10 12 10 11 12 11 11 11 12 13 13 15 16 16 18 19 19 20 22 20 18 21 23
6 5 3 1 1 2 4 5 5 6 6 6 5 3 4 5 5 5 4 4 4 2 6 4 1 5 3 4 5 5 5 5 7 7 7 7 6 6 6 6 5 5 5 5 6 8 12 14 14 14 13 10 9 9 8 8 7 7 7 8 10 8 7 9 11 10 10 11 11 11 10 11 12 12 13 14 15 16 17 18 19 21 20 18 19 22
5 3 2 2 3 4 5 4 6 7 7 6 4 4 5 3 4 4 3 3 1 4 4 2 1 3 1 4 5 5 5 5 7 7 9 9 8 7 6 6 5 5 5 5 5 6 8 11 12 13 12 9 10 9 7 8 7 6 7 9 10 10 8 10 11 10 10 9 10 10 10 11 12 11 12 12 13 14 15 16 17 19 21 19 18 19
4 5 5 4 5 4 5 4 2 4 4 4 3 3 3 2 3 2 3 2 1 5 5 2 2 2 1 4 2 5 4 4 6 6 8 10 9 8 8 6 6 6 6 5 5 5 6 10 13 13 10 8 10 10 8 8 8 7 8 9 11 11 10 11 11 10 10 9 9 9 10 12 12 12 12 11 12 14 14 15 15 17 18 18 17 16
2 3 4 2 2 2 3 3 4 2 1 1 0 3 3 2 2 1 2 1 2 4 5 3 2 2 2 3 1 3 3 2 4 4 6 8 8 7 7 6 6 6 5 4 4 6 8 12 15 13 9 8 10 9 9 9 8 8 9 10 11 11 10 10 11 10 10 9 9 9 9 11 12 12 12 12 12 13 13 14 14 15 15 16 15 14
3 3 6 3 1 2 3 0 2 4 2 2 1 5 2 2 4 1 2 4 3 1 3 3 1 1 2 1 3 3 4 4 4 5 7 6 6 6 5 6 6 5 4 5 5 6 10 14 16 14 10 8 8 8 10 9 8 8 10 11 11 11 10 10 10 10 9 8 9 10 9 10 11 11 12 12 12 12 13 12 13 13 13 13 14 13
3 4 6 4 4 3 3 0 2 5 1 2 3 2 4 3 6 1 2 1 2 3 2 2 1 1 3 3 4 3 4 4 3 4 7 6 6 7 6 6 6 5 5 6 6 7 10 15 16 13 10 6 5 9 12 9 8 10 11 11 11 10 10 10 10 10 10 9 9 9 10 10 11 11 11 12 13 13 12 12 11 12 12 12 13 12
2 2 6 4 6 4 2 3 4 3 4 3 3 3 3 2 3 3 1 3 4 2 3 1 2 1 1 0 3 2 1 2 2 3 5 6 6 7 7 6 6 6 7 7 8 9 11 15 15 12 9 5 4 9 12 11 10 12 11 9 10 9 8 10 10 11 11 9 9 10 10 11 11 11 11 12 12 12 11 11 11 11 12 11 12 12
3 1 6 4 4 5 5 7 5 6 3 4 0 2 2 3 2 2 2 1 2 1 2 2 2 1 2 3 3 3 5 6 5 4 4 6 7 7 6 6 7 7 7 7 7 7 9 13 14 11 9 5 5 11 13 13 13 12 10 9 9 8 7 8 10 10 10 9 11 11 10 10 12 11 11 11 11 12 11 11 10 10 11 11 11 11
3 3 4 6 4 3 5 5 3 6 6 4 3 4 3 2 2 0 1 2 1 0 1 0 3 2 3 4 5 7 8 7 6 6 7 8 9 7 6 6 6 7 7 7 7 6 8 13 13 11 9 7 9 14 16 16 14 11 9 9 9 8 6 7 8 9 9 9 11 12 10 10 11 12 12 10 10 12 11 10 9 9 9 9 9 10
3 3 1 6 6 4 2 1 0 3 3 3 4 4 3 2 1 1 1 1 2 2 2 1 2 4 5 3 5 6 7 8 9 9 8 9 9 8 7 6 6 6 6 6 6 6 9 13 14 13 10 9 14 17 17 16 13 11 10 9 8 7 6 6 7 9 8 8 9 11 10 9 11 12 11 10 10 12 11 9 8 7 7 7 8 9
1 2 1 3 5 3 3 5 3 3 3 3 2 1 1 1 3 3 2 3 1 2 2 2 2 5 5 3 5 5 6 8 11 11 9 9 9 7 7 8 7 6 6 7 7 7 10 14 16 13 8 11 16 17 16 15 13 11 10 9 7 6 6 5 6 8 7 7 8 9 10 10 11 12 10 10 11 11 10 10 9 8 7 7 8 8
2 4 3 2 2 3 6 5 3 4 3 4 2 2 4 3 4 5 1 3 2 2 1 2 1 5 5 3 4 5 5 6 9 10 9 8 7 7 7 7 7 6 6 7 8 9 13 16 16 11 9 13 17 17 17 15 13 11 10 9 8 7 7 5 5 6 5 5 6 8 9 10 11 11 10 10 11 11 11 11 10 9 8 8 8 8
1 3 3 2 4 4 6 5 4 4 4 5 2 2 4 2 3 5 4 2 0 3 2 2 1 5 5 4 3 3 3 3 5 6 6 5 4 5 8 7 7 7 7 8 8 11 14 15 12 11 13 15 16 18 18 15 13 11 10 9 8 9 8 5 4 5 4 3 5 7 9 10 11 11 11 11 12 12 12 11 10 10 8 7 7 7
1 1 2 2 4 6 7 7 6 6 5 2 3 3 2 3 4 3 1 3 1 2 2 3 2 5 5 5 5 5 6 5 3 2 3 3 3 5 7 7 7 8 8 9 8 9 10 10 10 13 15 14 15 19 19 15 13 11 10 8 8 8 8 4 4 3 3 3 5 7 8 9 11 11 10 10 12 13 12 11 10 9 8 7 6 7
2 2 3 4 2 1 2 3 3 3 3 2 3 4 3 2 2 1 1 3 0 3 1 3 4 5 6 7 6 6 7 6 3 1 0 3 5 7 7 7 8 8 9 10 9 8 7 8 10 13 14 13 14 18 19 16 12 11 10 8 7 7 7 5 4 3 2 2 4 6 7 8 10 10 10 10 11 11 10 9 9 9 9 8 7 7
3 2 2 5 5 4 4 6 5 3 0 3 4 5 3 1 2 3 3 2 3 1 2 4 5 3 8 8 7 7 6 5 3 1 2 4 4 6 7 7 8 8 9 9 8 7 7 8 10 13 14 12 13 16 17 14 12 11 9 8 7 7 6 5 4 3 3 2 3 4 6 7 8 8 8 9 10 9 8 9 9 9 10 9 9 9
4 2 0 5 5 5 6 7 5 4 3 5 4 5 5 1 3 5 3 4 4 3 4 6 5 1 7 8 7 6 6 5 4 2 5 6 6 7 7 7 8 7 7 7 7 7 8 7 9 12 14 13 13 15 16 13 12 10 9 8 7 7 5 4 4 3 2 2 2 3 5 6 7 6 7 9 9 7 7 8 9 9 10 10 10 10
6 0 3 2 1 4 4 5 4 4 3 4 5 6 6 3 4 6 6 6 7 4 6 7 4 3 7 9 8 7 7 6 6 6 5 5 6 7 7 7 8 8 7 7 7 8 8 8 9 12 13 14 15 17 16 14 12 10 9 7 6 6 4 4 4 3 3 3 2 3 4 5 5 6 7 9 7 6 5 7 8 9 10 10 10 10
5 1 4 2 2 4 5 4 3 4 3 4 5 7 7 6 7 8 6 5 6 6 6 5 4 7 8 8 9 8 7 7 6 3 2 3 5 7 8 8 9 9 8 8 9 8 8 9 11 13 14 15 16 17 16 14 12 10 8 5 4 4 4 5 4 4 3 3 2 2 4 4 4 6 8 7 6 5 6 7 9 9 9 9 10 10
3 2 3 3 3 5 6 3 1 4 5 5 7 7 5 4 5 4 3 2 3 4 4 1 3 7 7 7 7 7 4 4 5 5 4 5 5 4 5 8 9 9 8 9 9 8 8 8 11 13 14 15 16 16 15 13 11 9 5 3 2 3 5 6 5 5 3 3 2 2 4 5 5 8 8 7 7 6 7 9 10 9 7 8 10 9
3 1 1 4 3 5 5 3 4 3 1 3 8 9 6 3 3 3 3 4 5 4 1 1 2 6 7 4 4 6 4 4 6 7 6 5 5 4 5 7 8 8 8 8 8 9 8 8 9 11 12 14 15 16 14 12 10 7 4 3 3 4 7 6 6 6 5 3 2 2 4 5 7 10 10 8 8 7 7 9 9 7 6 7 8 8
4 3 1 3 1 4 5 3 3 4 5 4 6 6 6 5 3 2 3 4 5 6 5 3 5 6 5 4 4 6 5 5 7 7 4 4 5 5 5 6 7 7 7 8 9 9 8 8 10 12 14 15 15 13 11 10 9 7 4 4 3 6 9 7 7 7 5 5 4 3 4 5 7 10 10 10 9 6 6 8 7 5 5 4 5 7
4 5 3 2 2 4 6 3 3 5 2 4 5 4 6 5 5 5 5 6 6 5 3 4 5 5 5 5 5 6 6 6 7 6 5 5 5 4 4 4 5 5 5 6 6 6 8 10 12 14 15 15 13 11 11 10 8 5 3 5 4 8 10 8 7 6 5 5 5 4 3 5 6 7 8 9 9 6 6 6 6 5 4 2 2 4
4 4 2 1 2 2 3 4 5 2 5 7 6 3 5 5 7 6 5 6 7 7 6 7 8 8 7 6 7 7 8 8 6 5 5 6 6 7 5 3 4 5 5 5 6 7 11 14 15 15 15 14 13 12 10 8 5 4 4 5 4 8 10 8 7 5 5 5 4 3 2 3 5 6 6 6 6 5 5 4 4 6 4 0 1 2
6 4 2 2 2 1 2 3 1 5 7 6 6 3 3 3 3 2 5 7 6 7 7 8 9 9 7 7 7 6 7 6 3 2 2 3 4 7 7 5 5 7 7 8 10 12 16 18 18 17 15 14 12 10 8 5 3 5 5 5 3 8 11 9 6 5 6 5 3 1 1 1 2 3 4 4 3 4 4 2 3 5 4 1 3 3
7 5 2 1 2 1 1 2 2 3 6 6 4 1 3 3 4 4 1 6 5 2 3 5 7 8 6 6 7 6 3 3 4 4 5 3 3 5 7 7 8 9 11 13 16 19 20 20 19 17 15 13 11 9 6 3 4 5 3 5 3 8 11 9 6 6 6 4 1 1 2 0 1 1 3 3 2 1 2 0 1 3 3 1 4 5
5 4 4 2 1 2 3 1 3 3 3 5 5 3 2 3 6 6 3 4 5 3 2 1 3 6 5 4 6 5 4 5 3 5 5 2 3 5 6 8 11 15 18 19 20 21 22 21 19 16 15 13 11 8 4 2 4 3 3 4 4 9 9 8 7 8 6 2 1 2 3 1 1 2 3 3 1 1 2 2 2 3 2 2 5 5
6 3 4 4 1 1 3 1 2 1 4 6 5 5 4 2 6 6 4 4 6 3 2 1 2 4 5 6 6 4 5 3 4 5 5 4 5 6 7 7 11 17 21 24 25 24 23 21 18 16 15 14 12 9 4 3 6 1 5 1 5 6 4 2 4 8 7 2 2 1 2 2 1 3 2 1 3 4 4 4 3 2 1 3 4 4
6 4 3 3 2 2 3 2 3 3 4 4 3 5 5 0 6 8 3 6 6 4 4 1 2 2 3 4 5 3 3 1 4 5 5 5 5 8 10 11 13 16 19 22 24 24 22 21 18 17 17 15 14 11 6 5 6 2 4 3 6 4 2 3 2 7 7 3 5 4 1 1 1 3 4 3 4 5 6 7 6 5 3 3 4 4
1 1 1 3 3 3 3 3 3 3 4 4 4 5 3 3 7 4 3 6 4 4 5 2 2 1 2 3 4 2 3 5 5 5 5 5 4 7 12 15 18 21 22 23 24 24 23 22 18 17 17 16 15 12 8 7 7 3 5 4 6 4 1 1 4 10 7 4 4 4 2 1 2 4 5 5 6 7 7 5 4 6 5 3 4 5
1 0 0 2 3 3 3 3 2 4 4 5 4 3 1 4 1 4 6 5 4 4 5 3 2 2 2 2 3 5 5 4 4 3 4 5 6 7 10 13 16 18 19 21 24 24 23 22 18 16 18 17 16 13 9 7 6 3 4 5 7 5 2 2 7 10 7 4 3 1 2 3 5 6 7 8 7 5 3 5 4 2 4 4 7 7
3 2 2 3 3 2 1 1 0 3 4 6 4 1 2 2 5 5 4 3 4 4 4 4 4 4 4 3 5 5 2 4 5 4 5 5 5 8 12 15 16 17 18 20 22 23 23 21 19 18 19 18 17 15 11 8 6 4 4 8 8 4 3 5 7 7 6 4 2 1 3 6 7 5 4 3 1 2 4 7 7 4 1 2 6 7
2 2 2 2 2 2 2 1 3 4 6 6 6 3 4 6 6 5 5 4 4 4 4 4 5 5 5 5 6 5 2 0 4 5 5 5 6 7 11 14 16 19 21 23 25 25 24 22 21 20 20 19 18 16 12 9 7 7 8 9 7 4 4 5 5 6 4 2 1 1 2 4 3 4 5 4 4 3 5 6 7 8 8 6 6 5
4 4 4 2 2 3 4 5 5 4 4 4 5 6 6 3 2 5 7 4 4 4 4 4 5 6 5 6 6 4 3 4 6 5 3 5 6 7 10 14 18 21 23 25 26 27 26 24 22 22 22 22 20 17 13 11 11 11 10 9 8 7 6 5 5 6 3 0 2 3 0 2 3 5 4 2 2 3 5 5 6 11 14 14 14 12
4 3 3 1 2 3 3 3 2 1 3 4 5 6 5 1 1 4 5 4 4 5 5 4 5 6 5 5 5 4 5 6 6 5 5 5 6 7 10 14 17 20 23 24 25 27 27 24 22 23 24 23 21 18 15 13 13 13 12 11 10 8 7 7 6 5 3 2 2 3 2 1 1 3 3 2 3 5 6 4 7 12 15 18 20 20
3 1 2 0 1 1 3 3 3 2 1 2 1 3 3 2 4 6 6 5 5 5 5 6 7 7 5 6 6 6 7 6 5 5 6 5 5 7 10 14 16 19 22 25 26 28 27 24 23 23 24 24 23 20 18 16 14 12 11 12 11 8 9 10 9 5 4 4 4 4 4 4 2 1 2 4 4 5 6 6 8 11 13 15 17 19
1 1 1 1 3 3 4 5 4 3 2 1 1 1 1 3 5 6 6 6 6 6 7 7 7 6 4 5 7 7 7 6 6 6 6 6 6 6 10 15 19 21 24 26 27 27 25 24 24 24 24 25 25 23 20 19 16 13 12 13 13 10 9 10 9 5 4 6 5 5 5 5 4 3 0 3 4 5 7 8 8 10 11 11 12 13
2 1 1 1 1 2 4 5 3 3 4 4 3 3 4 5 6 6 7 6 6 6 7 7 7 7 6 7 7 7 7 7 7 7 7 6 6 7 11 17 21 22 25 26 26 26 26 25 25 25 25 26 25 24 23 20 18 16 15 15 15 13 10 9 9 8 8 8 7 6 7 7 6 5 3 4 7 7 8 8 9 9 10 11 10 9
2 3 2 1 2 3 4 5 3 1 2 4 5 5 6 6 5 4 4 5 5 6 6 6 8 8 8 10 9 7 7 8 8 7 6 6 8 10 13 17 20 22 24 26 26 27 27 26 25 25 26 26 24 24 25 22 20 19 17 15 15 14 12 12 11 9 9 10 9 8 9 10 9 8 6 5 7 9 9 8 8 8 9 10 10 9
4 5 3 2 3 5 7 7 5 4 4 6 6 6 7 5 4 3 2 4 6 6 6 6 7 7 7 10 11 10 9 9 11 10 7 8 13 15 13 14 18 21 23 24 24 25 25 25 24 24 25 24 24 25 26 24 22 20 18 16 15 14 13 14 13 9 8 10 10 9 9 11 12 11 9 7 7 8 9 9 8 8 8 9 9 9
Wind_Direction
68 56 19 270 291 312 300 66 88 167 164 109 85 293 310 275 247 245 272 278 129 100 142 154 151 175 170 150 103 124 135 131 135 142 147 151 151 153 150 146 147 141 145 148 146 146 145 145 145 133 114 97 79 63 55 51 47 44 45 46 50 47 33 27 23 17 13 10 8 8 7 6 10 15 16 16 14 15 20 18 8 356 340 327 310 291
60 67 328 261 270 313 36 21 25 40 51 68 102 170 331 330 236 250 224 253 94 93 165 141 143 182 163 129 118 126 130 138 147 151 154 153 150 152 149 148 151 148 150 149 149 152 150 150 149 138 118 99 81 68 58 53 54 50 50 50 49 40 30 27 22 14 9 8 5 5 6 6 10 16 14 12 11 12 17 18 11 3 347 330 319 308
43 51 276 284 322 358 29 25 30 41 42 43 68 104 38 355 310 321 345 5 55 96 214 148 131 166 141 116 124 128 134 149 156 154 153 152 149 154 157 154 156 154 150 153 155 156 157 154 145 135 118 101 86 68 58 60 62 57 58 56 47 37 29 25 20 12 7 2 359 2 9 13 16 21 19 17 16 12 12 14 12 6 354 338 323 315
59 262 269 331 21 16 11 18 45 49 46 46 51 84 35 337 42 8 341 338 332 164 183 113 95 96 88 93 87 90 119 123 128 136 139 147 150 156 161 156 157 154 155 165 162 156 159 153 140 131 120 107 93 72 63 67 68 69 72 61 47 38 28 23 18 12 7 3 360 359 8 16 17 20 21 22 23 16 10 9 10 5 357 344 326 316
117 259 296 22 27 27 30 19 42 64 47 38 57 87 92 338 51 105 340 337 337 348 98 91 74 73 133 128 110 38 69 92 102 118 118 135 146 149 154 156 161 160 162 167 159 159 161 148 137 130 119 109 96 82 75 73 77 84 82 63 47 38 29 23 17 11 7 9 11 5 7 14 14 14 16 16 14 12 9 7 7 6 0 348 331 316
28 303 4 35 23 29 54 35 36 91 63 16 42 85 107 83 35 38 40 31 22 349 323 100 99 265 274 115 110 64 77 83 74 118 132 148 153 151 157 164 169 165 165 162 153 160 157 142 137 130 119 111 98 93 88 79 84 93 84 62 48 40 32 25 18 12 8 12 17 14 13 15 12 9 8 5 1 1 3 4 6 8 7 358 341 321
1 3 38 49 44 38 43 34 27 102 86 19 277 294 62 69 25 9 46 58 82 277 292 97 131 202 321 10 28 66 94 83 78 141 161 173 173 171 171 173 175 167 165 152 150 159 150 139 138 133 124 113 103 105 96 84 91 95 80 62 51 43 36 27 18 13 12 15 16 14 14 15 14 7 3 4 4 2 1 3 5 8 12 8 355 334
332 16 33 46 55 49 34 16 333 76 100 212 260 276 38 43 335 318 22 70 174 251 318 12 105 126 185 282 278 115 113 122 169 179 195 201 196 197 192 188 181 173 163 144 146 155 144 140 139 136 131 118 111 112 100 93 100 95 78 63 54 47 38 29 20 14 16 18 14 11 11 12 15 9 3 6 10 8 3 4 6 7 11 13 6 352
306 38 58 69 59 45 26 282 283 16 95 223 249 256 284 271 249 289 359 28 282 16 326 316 55 98 268 264 180 138 132 188 211 197 204 216 215 209 197 196 194 183 164 139 145 153 145 145 143 139 135 124 117 113 101 98 99 90 77 63 52 46 40 30 20 16 19 17 13 12 11 11 11 8 4 6 10 8 5 3 5 8 10 13 12 6
293 126 140 106 78 44 286 280 338 36 0 245 266 327 323 350 280 271 299 249 25 51 264 277 51 105 270 264 179 177 194 220 224 207 209 215 206 199 192 191 192 185 160 130 146 155 150 150 146 140 132 122 118 115 102 96 97 92 75 59 49 45 45 32 21 22 26 20 13 13 16 16 12 6 5 7 8 5 3 2 2 6 10 11 13 13
317 327 92 92 114 174 301 339 29 32 344 331 38 11 350 3 3 32 71 98 61 14 257 262 271 110 151 256 202 195 213 202 194 190 210 210 190 188 193 189 185 180 163 140 151 153 151 152 148 138 128 120 119 119 105 97 103 98 76 59 53 55 60 41 27 27 30 24 16 14 16 17 13 7 6 6 3 1 0 358 357 2 7 10 12 15
349 6 16 17 99 73 41 14 9 18 25 46 54 30 12 354 0 22 4 40 80 262 263 264 334 86 113 240 219 222 245 195 171 182 191 194 191 186 191 192 185 182 172 157 159 154 148 149 144 134 128 124 127 128 116 111 116 105 84 65 59 73 84 54 35 30 30 26 20 17 17 16 13 10 9 6 359 358 359 354 353 360 4 8 11 14
344 351 349 348 9 47 64 23 347 1 26 40 50 58 48 359 359 16 336 8 102 245 256 218 126 83 155 250 208 208 250 206 185 188 178 181 189 183 190 196 187 188 183 169 165 157 150 147 140 135 134 135 139 141 133 124 122 112 88 67 68 87 86 54 41 36 29 25 22 19 16 13 10 9 9 6 356 355 358 355 353 357 1 5 5 7
341 327 341 5 352 18 81 83 2 336 6 22 29 73 87 71 36 347 291 340 313 266 279 266 118 96 300 296 211 174 197 197 188 179 167 174 181 180 189 192 188 193 190 177 161 150 153 150 144 142 141 145 155 154 139 129 126 110 88 77 86 91 73 51 45 39 29 24 22 17 11 7 7 5 4 4 357 352 355 355 353 354 359 5 4 2
44 321 312 356 314 336 63 120 164 168 47 341 196 114 104 120 123 247 244 203 250 273 301 333 66 137 192 277 283 140 125 111 125 137 149 164 176 177 182 185 190 197 187 169 154 152 162 158 152 151 147 149 162 161 142 135 128 105 94 97 96 86 69 53 42 35 29 25 21 15 6 360 358 359 359 359 356 351 353 353 352 352 356 2 5 7
62 272 267 304 307 100 66 0 135 90 48 289 86 80 25 189 149 235 223 190 210 288 327 337 17 182 171 339 354 68 86 74 91 120 133 152 171 165 177 194 193 191 174 159 157 161 168 166 162 160 152 149 162 162 149 142 131 113 110 108 95 81 69 51 37 34 31 25 22 16 5 353 351 357 358 353 349 347 348 350 349 349 352 356 2 10
38 291 283 340 12 63 86 328 64 83 135 299 41 45 269 195 140 140 294 309 64 76 308 314 111 75 50 9 332 26 91 91 96 130 143 159 169 165 186 202 191 180 172 168 167 169 171 169 167 162 153 149 156 160 155 143 128 123 118 107 91 79 63 46 38 34 26 23 23 16 5 356 353 354 352 349 346 345 344 346 348 348 349 353 359 8
111 297 302 17 33 346 358 58 44 70 119 79 13 273 272 34 90 105 35 352 29 61 292 334 115 166 77 33 299 338 96 168 185 178 169 169 171 182 198 201 194 183 176 176 171 168 169 168 166 159 154 157 153 157 153 138 127 125 116 99 88 78 62 49 42 33 23 20 19 10 2 1 357 351 351 354 354 352 349 348 348 348 350 355 -0 6
100 42 302 356 34 327 353 48 18 338 39 85 317 275 68 55 356 15 56 356 4 6 292 354 13 281 197 185 202 221 220 209 214 220 201 194 194 198 203 199 196 185 176 175 166 164 169 167 164 159 165 180 162 153 147 137 134 128 113 95 85 82 73 55 43 34 26 17 11 5 1 2 0 358 360 -0 359 1 358 353 349 349 351 357 2 5
77 93 282 313 344 338 5 44 21 319 338 26 16 3 45 127 171 281 36 145 156 238 206 316 351 301 235 211 190 210 218 199 202 217 209 211 209 200 197 197 189 179 175 170 162 165 170 166 164 167 182 186 159 151 147 144 142 129 110 95 84 84 80 58 46 40 28 17 10 5 3 1 359 2 5 2 3 6 3 357 353 351 352 357 2 4
54 80 267 307 335 18 19 352 261 289 311 12 25 10 348 349 75 31 346 94 131 141 155 163 299 271 254 221 191 216 220 194 194 206 211 218 217 202 193 186 179 178 174 167 164 167 169 170 173 182 194 178 154 149 148 147 140 123 111 101 88 81 77 68 55 40 23 15 12 9 10 3 357 1 2 2 9 9 7 7 6 4 3 4 4 3
76 90 89 319 345 17 248 243 245 247 210 147 107 95 129 71 72 71 331 318 59 119 170 169 230 267 260 215 194 210 211 197 195 199 210 220 215 203 193 184 178 175 171 168 167 168 174 181 186 192 188 158 151 149 148 146 136 122 115 106 93 78 75 77 59 42 24 13 14 15 14 4 358 1 359 4 14 14 16 22 24 23 22 27 24 17
144 101 74 319 289 244 252 263 279 262 198 124 105 112 124 115 98 112 212 286 342 355 292 121 138 267 264 243 218 219 216 207 199 196 206 224 220 193 183 180 168 162 170 171 169 177 184 188 192 189 160 148 154 154 150 145 132 120 116 108 92 72 71 83 72 54 33 16 19 22 17 6 5 7 3 10 19 18 21 28 36 42 42 43 41 37
82 78 56 315 299 296 296 316 338 348 51 63 349 24 96 100 120 142 172 184 0 325 350 61 320 269 280 310 297 284 298 258 216 198 190 213 228 179 163 161 156 159 172 176 178 185 187 187 185 167 150 150 157 158 152 144 131 122 119 112 93 69 61 79 97 70 33 16 21 22 21 14 11 11 10 17 21 20 30 43 53 57 57 52 40 33
37 74 78 45 353 345 341 344 346 350 24 41 297 330 49 79 88 100 81 78 75 264 146 123 257 255 275 323 349 350 332 300 252 196 159 170 171 162 158 158 163 167 173 181 186 187 188 185 171 159 155 151 152 156 154 144 133 124 117 110 94 69 51 64 106 82 26 15 16 18 21 16 11 11 15 24 26 32 48 58 57 56 54 44 29 21
106 141 109 102 98 336 316 303 293 299 328 317 297 327 355 61 74 74 59 72 207 258 138 150 225 264 294 321 349 353 328 289 254 93 218 217 170 162 166 166 168 172 178 184 186 187 189 182 170 164 160 150 145 152 153 146 133 123 118 108 86 59 45 70 110 91 46 31 15 15 17 12 7 10 23 31 33 45 62 60 51 51 47 40 33 28
85 94 107 132 157 188 213 239 232 172 250 284 280 306 319 95 108 106 99 133 194 196 332 227 207 273 302 304 318 330 329 301 283 115 162 218 200 178 176 176 180 184 186 186 182 181 178 176 176 169 160 151 144 148 151 146 133 128 128 114 82 53 52 88 120 103 64 44 14 14 17 14 3 7 29 35 34 56 68 52 48 49 45 44 40 36
84 23 26 144 176 204 204 228 225 158 197 236 239 279 290 277 110 116 150 214 173 108 302 248 193 249 285 279 279 285 299 303 282 197 172 190 204 198 189 188 194 199 197 187 178 178 174 176 181 172 161 154 146 146 149 144 137 136 131 112 80 55 62 104 134 122 75 36 6 0 11 15 3 10 34 30 35 67 63 43 50 50 45 48 47 47
104 210 233 161 233 253 225 231 217 178 220 235 219 246 263 243 178 186 215 207 158 160 246 234 201 242 265 277 274 251 240 235 222 206 188 185 192 193 192 195 200 206 207 198 190 186 180 177 180 176 169 157 148 150 152 146 143 139 123 100 66 52 82 133 136 112 73 42 23 356 10 22 11 18 27 23 42 80 59 47 59 49 43 53 55 57
102 210 230 152 7 308 287 266 214 197 236 263 246 239 234 224 212 210 231 212 175 205 235 222 248 264 255 260 266 254 231 227 235 230 192 201 207 192 186 193 202 208 205 200 197 190 181 178 180 179 170 159 154 156 154 148 144 135 116 90 51 59 123 150 128 97 73 60 57 32 42 50 33 22 24 36 73 85 56 55 55 40 42 55 53 49
84 227 230 106 48 310 296 310 255 214 223 246 265 267 257 249 237 221 232 208 190 249 265 228 273 279 264 240 252 271 262 245 263 256 226 230 232 209 193 192 198 207 207 202 196 187 180 180 178 175 168 162 160 156 150 145 142 133 111 72 54 101 141 150 124 94 77 68 75 65 66 72 56 37 39 68 85 66 54 56 43 33 48 57 48 47
96 186 309 73 48 285 276 312 316 306 308 288 287 281 259 224 216 217 218 200 188 198 221 15 292 268 265 258 274 288 274 238 240 240 244 248 224 204 218 211 204 206 200 191 186 181 181 179 173 170 165 159 155 149 145 146 148 147 128 68 76 135 151 149 118 96 88 80 74 76 73 69 59 51 55 75 75 54 57 61 45 36 50 58 55 60
136 132 130 104 89 273 276 300 319 14 26 327 280 249 213 206 220 246 265 241 201 158 143 195 234 235 253 298 320 303 281 250 240 234 235 234 204 186 200 210 216 217 195 180 182 180 173 168 162 155 149 146 147 146 148 152 153 156 131 55 71 149 158 148 114 98 96 88 74 74 76 66 60 59 62 71 73 63 60 59 49 37 39 51 66 69
137 130 158 147 135 265 281 321 30 38 18 263 247 187 171 185 195 205 239 237 211 187 189 227 247 253 261 268 265 266 261 247 242 236 209 188 172 159 172 190 195 195 176 164 164 155 144 143 143 141 139 141 145 145 145 147 149 150 104 52 87 153 161 150 123 110 112 102 78 61 74 74 63 59 64 70 70 67 64 57 41 27 24 30 77 77
145 127 145 138 130 234 291 24 38 344 236 242 267 240 188 173 168 187 248 255 225 229 250 263 268 262 259 256 246 248 258 256 255 249 215 181 159 145 143 152 149 143 142 138 128 129 135 135 134 136 137 138 142 142 141 146 158 155 110 68 97 153 164 158 138 130 132 117 86 52 77 92 71 60 66 70 61 58 65 55 19 16 19 0 176 104
151 141 141 157 161 260 14 64 106 254 257 279 303 275 192 140 133 165 295 286 249 226 228 240 256 260 267 278 271 259 263 274 308 325 273 233 181 150 139 154 159 144 145 147 140 139 140 139 139 140 139 138 140 140 137 147 169 147 105 45 64 161 171 168 157 154 148 126 94 75 134 105 82 77 76 68 49 50 60 42 343 1 6 189 188 189
144 141 133 163 197 170 135 204 249 306 316 315 315 249 179 172 169 157 235 279 275 251 213 229 261 274 271 272 279 280 293 8 17 336 310 288 203 158 139 154 160 146 145 148 146 145 145 146 147 147 146 145 143 138 134 159 188 153 84 20 65 149 168 176 173 167 156 136 118 227 227 259 57 89 97 84 66 48 49 339 315 1 12 158 193 202
129 154 160 158 205 118 104 297 318 1 314 272 262 266 241 176 167 141 112 285 291 337 356 231 276 299 301 296 303 325 29 38 350 292 292 273 174 132 120 142 146 141 143 145 145 147 149 152 154 154 154 153 149 147 144 188 184 152 17 7 104 137 164 183 182 171 158 140 318 264 246 250 86 118 137 134 162 237 275 277 317 9 19 195 203 199
60 59 113 111 98 116 116 177 236 225 247 244 248 285 303 157 137 99 47 303 274 292 323 61 54 356 348 336 329 17 58 18 286 262 262 239 189 144 129 139 142 143 148 151 153 155 156 158 158 158 160 160 159 161 157 157 168 180 342 353 137 130 140 161 168 170 166 129 54 15 273 256 155 157 185 254 275 283 305 310 317 349 271 219 206 187
54 32 68 113 195 191 148 189 233 227 247 250 241 262 274 119 89 72 15 278 256 256 263 180 86 35 11 352 343 31 96 195 243 238 236 223 188 160 150 149 151 153 155 157 160 161 161 163 162 163 168 168 165 167 165 156 173 255 323 160 153 142 94 25 110 168 172 134 86 74 20 271 229 244 258 285 292 302 322 319 304 308 301 241 214 202
64 56 119 157 189 190 171 209 261 254 241 241 232 227 223 68 65 74 235 238 225 236 245 194 117 332 343 359 334 292 217 221 228 225 209 181 164 165 165 164 165 165 165 166 167 166 165 169 170 171 175 173 167 170 172 165 177 255 297 214 182 164 113 41 148 159 161 146 114 80 33 325 298 290 285 297 303 309 329 341 315 304 305 270 233 231
259 115 163 162 168 181 178 191 277 284 237 203 211 236 104 79 99 222 220 209 183 210 239 213 184 244 264 256 252 247 256 289 296 256 211 183 172 172 172 168 165 168 170 170 170 170 170 174 178 179 177 173 172 174 172 167 182 248 275 204 178 154 113 126 148 149 143 140 146 70 350 327 327 319 305 305 304 303 358 52 55 330 296 270 245 238
192 167 237 215 186 171 105 103 338 283 240 191 176 334 45 141 207 217 204 203 198 199 224 234 230 230 222 233 251 244 275 352 330 285 263 244 208 182 175 171 169 172 175 174 174 176 175 177 183 184 178 176 179 181 174 169 188 208 182 170 164 159 161 142 138 146 143 136 158 251 336 332 332 334 328 330 83 105 60 53 55 51 33 229 227 227
204 178 217 242 205 143 122 218 219 223 222 192 167 188 219 207 198 171 159 203 230 213 209 228 245 239 210 211 243 238 184 214 274 268 275 270 243 201 183 179 177 177 178 179 182 182 180 182 184 182 179 180 184 187 181 178 188 190 180 175 169 171 177 157 151 170 165 137 177 202 338 342 8 66 70 92 120 90 33 36 59 78 93 117 155 174
231 204 177 192 210 170 181 217 220 215 228 210 188 210 235 245 195 163 163 184 227 220 203 207 238 250 228 210 234 247 214 223 253 266 269 257 244 223 202 191 184 183 184 186 187 185 186 189 186 181 181 185 188 190 189 190 194 194 193 189 179 177 187 187 184 186 182 263 237 200 220 7 67 70 57 82 113 30 14 36 85 95 97 106 117 124
242 198 133 133 274 267 249 255 282 340 291 261 242 246 255 262 175 180 180 197 223 218 205 203 227 246 238 209 215 247 241 229 241 258 250 233 228 231 224 208 195 189 188 188 190 191 192 193 189 184 185 189 192 193 195 198 202 202 201 197 190 191 199 197 190 189 192 219 220 194 185 186 58 22 11 19 29 23 25 57 107 108 102 106 113 118
294 84 86 36 268 273 286 298 329 344 250 229 263 303 297 230 188 179 188 217 230 223 218 222 229 237 233 209 210 236 244 228 225 248 259 247 230 228 222 213 205 197 192 192 195 196 195 192 190 189 190 193 196 197 200 205 210 207 199 195 190 186 185 182 179 186 204 208 197 173 171 186 207 294 7 19 22 34 51 80 118 121 110 108 113 118
289 15 331 239 188 191 238 251 252 250 248 221 138 129 209 221 209 203 210 221 228 229 232 233 229 222 220 218 216 226 237 228 213 222 242 250 248 239 222 213 209 203 199 200 199 196 195 195 194 194 195 197 200 200 202 210 216 207 191 186 182 174 172 178 181 188 207 211 204 191 187 194 211 224 86 56 60 69 74 83 105 118 116 115 115 117
187 207 247 199 180 302 277 261 273 320 329 319 277 220 211 210 211 225 238 234 233 242 247 252 248 233 226 235 231 225 236 240 225 219 230 240 244 238 224 218 214 209 205 205 203 199 198 199 199 199 200 202 203 203 205 212 214 200 184 179 180 181 184 192 196 201 209 215 223 231 226 220 220 219 185 111 94 91 88 85 88 99 109 116 116 110
212 221 216 96 22 309 265 236 216 194 257 270 259 240 232 217 196 214 254 253 252 254 248 255 270 268 255 251 244 227 232 250 244 229 231 240 240 238 231 223 218 215 211 208 207 205 202 202 203 202 202 205 206 205 207 210 204 192 184 182 184 189 195 198 201 208 216 222 234 249 247 234 221 211 190 143 111 100 98 97 95 99 106 113 115 111
204 202 189 163 204 242 249 239 206 166 198 237 237 233 234 212 150 123 235 234 237 243 229 228 258 277 274 264 249 226 219 244 248 235 230 246 251 251 248 235 224 218 214 209 207 205 204 204 204 201 201 203 204 204 207 207 198 190 190 191 187 189 197 204 207 211 216 221 233 253 258 239 218 205 195 173 140 115 105 105 107 111 114 115 117 119
Height
780 789 796 799 799 793 788 787 788 789 788 791 794 797 800 805 805 797 792 788 783 794 805 805 808 810 811 813 814 814 816 820 825 828 830 832 833 834 835 836 836 836 836 837 838 840 841 842 843 844 844 844 844 843 842 842 841 841 840 839 838 837 836 835 833 832 831 830 828 827 826 825 823 822 821 820 819 818 816 815 814 812 812 811 811 811
784 795 799 795 793 788 784 784 785 787 788 791 797 801 804 806 803 795 791 788 783 793 804 804 808 812 812 815 815 814 817 822 823 825 829 830 833 834 835 836 836 835 836 836 838 839 841 843 843 844 844 844 844 843 843 842 842 841 840 839 838 837 836 835 834 833 831 830 830 828 827 826 824 823 821 820 819 818 816 815 813 812 811 811 810 810
796 800 796 789 787 784 783 784 787 790 792 795 797 803 810 807 801 797 793 789 787 793 801 801 808 816 815 815 816 815 817 821 820 820 824 827 830 833 833 833 834 835 836 837 837 838 841 843 843 844 845 845 844 843 843 842 842 841 841 840 838 837 836 836 835 833 832 831 830 829 828 826 824 823 822 820 819 817 815 814 813 812 811 810 810 810
806 800 790 787 786 786 789 790 790 795 799 802 802 808 815 808 806 809 801 794 792 793 797 801 812 821 820 818 820 820 819 821 824 824 824 825 826 829 830 830 832 834 836 837 837 838 840 842 843 844 844 845 844 843 843 842 842 841 841 840 838 838 837 836 835 833 832 831 830 829 827 826 824 823 821 819 818 816 815 813 812 811 810 809 809 809
803 794 786 786 788 790 794 795 794 799 806 807 805 809 814 809 808 810 804 797 795 795 795 803 823 830 823 823 826 827 825 826 829 829 830 830 828 829 830 831 831 832 833 835 837 838 840 841 842 843 844 845 844 843 842 842 841 841 840 839 838 838 837 836 834 833 832 830 829 828 826 825 823 822 820 818 817 816 815 813 812 811 810 809 808 807
799 792 787 790 792 793 796 800 801 803 808 810 806 805 807 805 804 804 802 802 807 809 799 802 829 840 829 828 833 834 833 833 833 833 833 834 833 832 832 832 832 832 833 834 836 838 839 840 842 842 843 844 843 842 842 842 841 841 840 839 838 837 836 835 834 833 831 830 829 828 826 825 824 823 821 820 819 817 816 814 813 812 810 808 807 805
797 791 790 795 797 798 801 803 803 802 809 814 806 798 798 800 801 802 804 808 817 819 806 801 821 839 838 835 838 838 837 838 837 836 835 834 834 833 833 833 832 833 833 834 835 837 838 839 840 841 842 842 842 842 842 841 841 840 839 839 838 837 836 835 834 833 831 830 829 828 827 826 825 824 822 821 819 818 816 815 813 811 809 808 806 804
797 793 795 797 798 803 806 806 802 800 809 814 802 794 796 797 801 803 805 811 816 813 810 806 812 832 844 840 838 839 840 841 838 837 837 835 835 834 834 834 832 832 833 834 835 836 837 838 839 840 840 840 841 841 841 841 840 840 839 839 838 837 836 835 834 833 831 830 830 829 828 827 825 824 823 821 819 818 816 814 812 810 809 807 805 803
796 797 799 797 800 806 806 805 801 799 806 806 796 796 797 796 799 802 804 811 814 814 818 813 810 831 849 842 837 838 839 841 838 837 838 836 835 835 834 834 833 832 832 832 834 835 836 837 838 838 839 839 840 840 840 840 839 839 839 839 838 837 836 835 834 833 832 831 830 829 828 827 825 824 822 821 819 818 816 814 812 810 808 807 805 804
795 795 795 797 803 805 802 800 798 799 804 799 794 797 797 798 800 800 807 811 814 823 827 817 812 830 849 845 840 840 839 837 835 835 836 835 835 835 834 834 833 832 832 832 833 834 836 836 837 837 838 839 839 839 840 839 839 839 838 838 837 836 836 835 834 833 832 831 830 830 828 827 826 824 822 820 819 817 815 814 812 810 809 808 806 805
795 790 791 796 800 801 798 797 796 799 800 794 796 801 799 803 804 805 812 813 821 833 826 817 817 825 842 845 838 836 832 828 831 834 835 834 834 835 833 832 832 831 831 832 832 833 835 835 836 837 837 838 838 838 839 838 838 838 838 837 836 836 836 835 834 833 832 831 830 830 829 827 826 824 822 820 819 818 816 814 813 811 810 809 808 806
798 796 796 795 795 796 796 797 798 799 799 799 806 810 809 813 813 814 818 818 832 840 824 817 819 823 837 840 830 826 822 821 825 828 831 832 832 833 832 831 831 831 831 831 832 832 834 835 836 836 836 837 838 838 838 837 837 837 837 836 835 835 835 834 833 833 832 831 830 830 829 827 826 824 823 821 820 819 817 815 813 812 811 809 808 807
806 804 801 797 794 795 800 805 805 802 802 807 813 816 823 831 831 832 835 834 839 836 821 817 819 825 837 832 821 821 820 820 820 820 825 829 830 831 831 830 830 830 830 830 831 832 833 834 835 835 836 836 837 837 837 836 836 836 836 835 835 834 834 833 833 832 831 831 830 829 828 827 826 824 823 822 820 819 817 816 814 812 811 810 808 807
818 811 804 802 802 797 801 812 817 813 810 814 817 821 831 842 848 851 851 849 844 831 820 818 821 832 839 828 819 821 820 819 817 817 822 824 826 829 828 829 829 829 829 830 831 832 833 834 834 834 835 835 836 836 835 836 836 836 835 835 834 834 834 833 832 831 831 830 830 828 828 826 825 824 823 821 820 818 817 816 814 813 812 811 809 808
834 829 813 809 809 802 803 809 814 814 813 815 816 820 828 837 847 853 849 847 845 835 826 823 828 840 841 830 822 821 820 819 818 819 822 823 825 827 827 828 829 829 830 831 831 832 833 833 833 833 834 834 834 834 835 835 835 835 835 834 833 833 833 832 831 830 830 830 829 828 827 826 825 823 822 821 820 818 817 815 814 813 812 811 810 809
837 834 815 807 805 802 805 805 803 810 817 817 815 821 828 829 834 842 842 841 841 839 836 834 836 838 834 828 824 823 823 821 821 821 823 825 826 827 828 828 828 829 830 830 831 831 831 831 831 832 833 833 833 834 834 835 834 834 834 833 833 832 832 831 830 830 829 829 828 827 826 825 824 823 821 820 819 817 816 815 814 812 811 811 810 809
836 832 812 807 807 802 805 805 801 811 820 819 820 826 824 819 823 834 840 840 839 843 845 843 842 838 835 833 828 827 827 825 824 824 824 825 826 827 828 827 827 828 828 828 829 829 830 830 831 831 832 832 832 833 833 833 834 833 833 833 832 831 831 831 830 829 829 829 828 827 826 825 823 822 821 819 818 817 816 814 813 812 811 810 809 809
832 832 818 813 814 807 805 805 803 807 814 821 827 823 816 817 822 829 839 842 843 848 848 846 845 842 843 842 833 831 832 828 827 827 825 826 826 827 827 826 827 826 826 827 827 828 829 829 830 830 830 831 831 832 832 832 833 833 833 832 831 831 831 830 829 829 829 828 827 826 825 824 823 821 820 819 817 816 815 814 813 811 810 809 809 808
826 833 826 816 817 814 806 809 814 811 809 817 822 816 818 830 833 833 841 846 849 854 853 849 848 844 842 840 834 833 832 828 828 829 827 827 825 825 825 825 825 825 825 826 827 828 829 829 829 829 830 830 830 831 831 831 832 832 832 831 830 830 830 829 829 828 828 828 827 825 824 823 822 821 819 818 816 815 814 813 812 811 810 809 808 808
824 835 835 819 816 818 815 820 832 829 816 813 816 817 822 831 836 837 840 844 849 854 855 854 852 846 837 830 828 828 828 828 828 828 827 825 823 822 823 823 824 824 825 825 827 828 828 828 828 828 829 829 829 830 830 830 831 831 831 831 830 830 829 828 828 827 827 827 826 825 824 822 821 820 819 818 816 815 813 813 812 811 810 809 808 808
825 836 839 826 819 824 829 831 836 835 828 823 826 829 830 829 833 838 838 840 845 848 853 856 855 847 830 821 821 821 822 824 825 823 823 822 820 820 821 821 822 823 824 825 826 827 827 827 827 827 828 828 828 829 829 829 830 830 831 830 830 829 829 828 827 826 827 826 825 824 823 822 821 819 818 817 816 814 813 812 811 811 810 809 809 808
827 834 839 836 831 833 835 830 827 829 828 828 829 833 836 834 837 844 846 844 843 845 850 854 854 843 824 816 818 816 816 818 819 819 819 819 818 819 819 819 820 822 823 825 825 826 826 826 826 826 827 827 827 828 829 830 830 830 830 830 829 829 828 827 827 826 826 826 824 823 822 821 820 819 818 817 815 814 813 812 811 811 810 809 809 808
823 831 837 840 838 836 832 825 825 826 821 823 827 829 834 836 839 848 852 848 845 846 847 850 852 839 819 815 816 812 812 814 815 817 817 816 816 816 818 818 819 821 823 824 825 825 825 825 825 825 826 827 827 828 829 830 830 830 830 829 829 828 827 827 826 825 825 825 824 823 822 821 820 818 817 816 815 814 813 812 812 811 810 809 809 808
822 833 840 842 838 833 827 822 823 822 820 825 829 828 831 834 835 841 846 847 848 849 847 851 853 838 819 818 817 813 812 812 814 816 815 814 815 816 817 818 819 821 823 824 824 824 824 824 824 825 825 826 827 827 828 828 829 829 829 829 828 827 826 826 825 825 825 825 824 822 821 820 819 818 817 816 815 814 813 812 812 811 810 810 809 808
826 837 842 848 851 846 840 835 831 827 828 835 835 832 832 833 834 838 842 846 849 850 851 853 852 838 823 820 820 817 815 812 813 817 815 814 816 817 817 817 819 821 821 822 823 823 823 824 824 824 824 825 826 826 827 827 828 828 827 828 827 826 826 825 825 825 825 824 824 822 821 820 819 818 817 816 815 814 813 813 813 812 811 810 810 809
827 836 839 849 861 862 858 853 845 839 838 839 838 835 833 834 835 837 842 847 849 851 852 850 847 836 824 821 820 819 818 814 813 816 817 816 816 816 816 817 819 820 820 820 821 822 823 823 823 823 824 824 825 825 826 826 827 827 827 827 827 826 825 824 824 825 824 824 823 822 821 820 819 818 817 816 815 814 814 814 813 812 812 811 810 809
828 834 836 842 850 853 853 846 841 842 843 840 838 835 834 836 838 837 843 848 847 849 849 844 843 839 829 824 823 821 819 817 815 815 816 818 817 816 816 816 817 817 817 818 820 821 822 822 822 822 823 823 824 824 825 825 825 826 826 826 826 825 824 823 824 824 824 824 823 822 821 820 819 818 817 816 815 815 815 814 813 813 812 812 811 810
830 836 837 839 840 842 843 837 836 842 842 839 838 836 833 836 840 840 841 842 843 848 847 841 842 843 832 825 826 824 820 819 816 814 814 816 817 816 816 816 817 817 817 818 819 820 821 821 821 821 822 822 823 823 824 825 825 825 825 825 825 824 823 823 823 823 824 823 822 822 821 820 819 818 817 816 816 815 815 814 814 813 813 812 811 810
830 837 836 836 837 838 838 835 836 840 841 839 839 837 833 835 838 838 837 837 839 842 840 837 841 841 831 824 824 823 819 817 814 811 811 812 813 815 816 816 817 817 817 817 818 818 819 820 820 820 821 821 822 823 823 824 825 825 825 824 824 823 823 823 823 823 823 823 822 822 821 820 819 818 817 816 816 815 815 814 814 813 813 812 811 811
828 835 836 836 837 836 835 834 836 838 838 838 836 835 834 834 835 835 836 838 839 837 835 837 840 837 829 824 820 817 816 815 812 810 810 810 810 812 813 814 815 815 815 815 816 816 817 818 818 819 820 820 821 822 823 824 824 824 824 824 823 823 822 823 823 823 823 822 822 821 820 819 819 818 817 816 816 815 815 814 814 813 813 812 812 811
828 834 836 836 839 839 834 832 834 835 837 837 834 833 836 837 838 839 840 840 840 838 837 840 842 835 824 820 818 815 814 815 814 811 809 808 809 810 810 811 812 812 813 813 814 815 816 817 818 818 819 819 820 821 822 823 823 824 823 823 823 822 822 823 823 823 823 822 822 821 820 819 819 818 817 816 816 816 815 814 814 814 813 813 812 812
828 834 837 838 843 843 835 833 834 834 837 838 834 831 834 836 837 838 838 837 835 834 837 841 840 830 818 815 816 814 811 813 812 809 808 808 808 808 809 808 809 809 809 811 813 814 815 816 817 818 818 819 821 821 822 822 823 823 823 822 822 822 822 823 823 822 822 822 821 821 820 819 819 818 817 816 816 816 815 815 814 814 814 813 812 812
828 832 836 841 844 841 837 837 836 836 840 839 830 825 827 831 833 836 836 835 833 831 833 834 829 821 816 816 815 812 811 811 809 806 807 807 806 805 806 806 807 807 807 809 811 812 814 816 817 818 819 820 821 822 822 822 822 823 822 822 821 821 822 823 823 822 822 821 821 820 819 819 819 818 817 816 816 816 816 815 815 814 814 813 813 812
829 829 834 840 841 841 840 837 837 843 846 836 824 822 824 825 828 831 828 827 829 829 826 824 821 818 817 817 814 812 810 808 806 804 804 804 804 804 804 804 805 806 808 809 811 812 815 816 818 819 820 821 822 822 823 823 822 822 822 821 821 821 822 823 822 822 821 821 821 820 819 819 819 818 817 816 816 817 816 815 815 814 814 814 813 812
829 830 835 840 842 842 839 838 844 849 840 826 820 823 823 822 824 826 824 821 824 826 824 822 819 814 813 814 813 812 810 806 805 804 803 802 802 803 804 804 804 806 809 810 812 814 816 817 818 820 821 822 822 822 823 823 822 822 821 821 821 821 822 822 822 821 821 821 821 820 819 819 818 818 817 817 817 817 816 815 815 814 814 813 813 813
825 830 834 838 841 842 841 845 850 844 828 819 819 820 821 823 824 826 825 820 818 821 822 819 815 812 813 814 812 810 808 806 804 804 804 804 803 802 803 804 805 807 809 810 812 814 815 817 818 820 821 822 822 822 823 822 822 821 821 820 821 821 822 822 821 821 821 821 821 820 819 818 818 818 817 817 817 816 816 815 815 814 814 813 813 813
818 826 830 833 838 841 843 845 843 837 830 823 819 818 818 819 819 822 824 820 817 821 822 817 813 812 811 810 808 807 806 805 805 806 805 805 805 803 803 804 805 807 809 810 811 813 815 817 818 819 821 821 822 822 822 822 821 821 821 821 821 821 821 822 821 821 822 822 821 820 819 819 818 818 817 817 816 816 816 815 815 814 814 813 813 812
813 818 823 830 836 839 843 845 844 845 840 827 819 818 815 813 812 815 821 821 817 818 819 817 815 814 811 809 807 805 805 808 809 808 805 805 805 804 804 805 806 806 808 810 812 814 815 817 818 819 820 821 821 821 821 821 821 821 821 821 821 821 821 821 822 822 822 822 821 820 820 819 819 818 817 817 816 816 815 815 815 814 813 813 812 812
816 820 823 829 834 838 842 845 847 845 836 824 819 817 815 813 810 813 825 827 817 815 819 817 815 815 814 813 809 805 807 814 814 809 806 805 805 804 805 807 807 807 808 809 810 812 814 816 817 818 819 819 820 821 820 820 820 820 821 821 821 821 821 821 821 822 822 822 821 820 820 820 819 818 818 817 817 816 815 815 814 814 813 812 812 812
823 827 828 829 833 837 839 842 841 835 826 821 819 816 814 810 808 821 837 832 815 813 817 815 811 810 810 812 812 808 809 813 811 806 804 805 805 804 805 806 807 808 808 809 810 811 813 815 816 817 818 818 819 820 820 820 820 820 821 821 821 821 820 821 821 821 822 822 821 821 820 820 819 819 818 818 817 816 816 815 814 813 813 812 812 812
825 828 832 832 832 835 839 840 837 829 821 818 817 814 810 810 817 832 836 821 809 812 815 812 809 808 806 809 811 810 807 806 804 802 802 804 805 804 804 804 805 806 807 808 810 810 812 813 814 815 816 817 818 819 819 819 819 820 820 821 821 820 820 820 820 821 822 822 821 821 820 820 820 819 819 818 817 816 816 814 813 813 812 812 812 811
825 828 834 835 833 835 837 836 836 829 818 814 814 811 809 816 826 827 817 807 808 811 810 809 809 807 807 808 810 809 805 803 803 803 802 803 803 803 804 804 805 806 807 807 809 810 811 812 813 814 815 816 817 818 818 818 819 819 820 820 820 820 820 820 820 821 822 822 821 821 820 820 820 819 818 818 817 816 816 814 813 812 812 811 811 811
820 824 830 830 829 832 834 835 837 831 817 810 814 814 813 817 817 810 804 807 809 807 806 808 806 805 807 807 807 807 804 803 804 804 804 804 802 801 802 803 803 804 805 806 807 808 809 810 811 813 814 814 816 816 817 817 818 818 819 819 820 820 820 820 820 821 821 821 821 821 821 820 820 819 818 817 816 816 816 814 813 812 811 810 810 810
818 821 824 824 822 827 832 830 825 817 808 806 810 811 808 806 803 801 803 807 807 807 807 805 803 803 805 805 805 805 803 802 802 802 802 804 803 801 801 801 802 802 803 803 804 805 807 808 809 811 812 813 814 815 816 816 817 817 818 819 819 819 820 820 821 821 821 821 821 821 821 821 820 819 818 817 817 816 816 814 814 813 811 810 809 810
815 814 816 817 816 818 819 815 808 804 803 804 805 802 801 801 801 802 803 802 804 806 806 804 802 802 802 803 803 802 801 801 800 799 801 802 802 801 800 799 799 800 800 801 802 803 805 806 807 809 810 811 813 814 814 815 816 816 817 818 818 819 819 820 821 821 821 821 821 821 821 821 820 819 818 818 817 816 815 815 814 813 812 811 810 810
809 809 811 811 811 812 810 805 803 804 803 802 802 801 801 802 803 803 802 801 801 802 802 803 802 799 800 802 801 800 800 800 799 799 799 799 799 800 799 798 798 798 798 799 800 801 803 804 805 806 808 809 811 812 813 814 814 814 815 816 817 818 818 819 820 821 821 821 821 821 821 821 820 820 819 818 817 816 815 814 814 814 814 813 812 812
808 808 809 810 812 815 812 805 803 805 803 801 801 801 800 800 800 801 801 800 799 799 801 801 799 798 799 799 799 799 798 797 797 797 797 796 796 796 797 797 797 796 796 797 798 799 800 802 803 804 805 807 808 810 811 812 813 813 814 815 816 817 817 818 819 820 820 821 821 821 821 821 820 820 819 818 817 816 815 815 814 814 814 814 814 814
810 807 809 811 811 812 811 805 802 803 802 801 801 800 799 799 798 798 798 798 797 798 798 797 797 797 797 796 797 796 795 795 795 794 793 793 793 793 794 795 794 794 794 794 795 797 798 799 800 801 802 804 806 807 809 810 811 812 813 814 815 816 817 817 818 819 820 820 820 821 821 821 820 820 819 819 818 817 816 815 815 815 814 815 815 815
808 808 810 811 810 810 809 806 804 804 804 802 800 799 797 797 797 796 796 796 796 796 796 796 796 795 795 794 794 794 793 793 792 791 790 790 790 790 791 791 791 791 791 792 793 795 795 796 798 799 800 801 803 805 807 808 809 811 811 812 814 814 815 816 817 818 819 819 820 820 820 820 820 820 820 819 818 817 817 816 816 815 815 815 816 816
808 809 809 811 813 812 808 803 803 805 804 801 798 796 795 795 795 795 795 795 796 796 796 795 794 793 793 792 792 792 792 791 789 789 789 788 787 787 787 788 789 789 789 789 791 792 793 794 795 796 797 799 801 803 804 806 808 809 810 811 812 813 814 815 816 817 818 818 819 819 820 820 820 820 820 820 819 818 817 817 817 816 816 816 816 816
804 805 805 808 812 809 803 799 799 801 800 797 795 793 792 792 792 792 793 794 794 794 794 793 793 792 790 789 788 789 789 787 786 787 787 786 785 784 784 785 786 786 786 788 789 790 791 792 793 794 795 796 798 800 802 803 805 807 808 809 810 811 812 813 814 815 816 817 817 818 818 819 819 820 820 820 820 819 818 818 817 817 817 817 817 817